EW3608 Weather Reports


time (UTC)temp
C
wind
direction
speed
KPH
gust
KPH
rain 1hr
cm
rain 24hr
cm
rain mn
cm
humidity
%
barometer
mb
20260509151003 20 336 0.0 3.2 0.00 0.00 0.00 27 1013.8
20260509150504 20 253 1.6 3.2 0.00 0.00 0.00 26 1013.7
20260509150019 20 9 1.6 9.7 0.00 0.00 0.00 28 1013.8
20260509145502 19 62 1.6 9.7 0.00 0.00 0.00 28 1013.9
20260509145003 19 5 1.6 6.4 0.00 0.00 0.00 26 1013.9
20260509144512 18 248 1.6 6.4 0.00 0.00 0.00 27 1013.8
20260509144008 18 5 0.0 4.8 0.00 0.00 0.00 27 1013.7
20260509143503 17 360 1.6 6.4 0.00 0.00 0.00 28 1013.7
20260509143008 17 24 3.2 6.4 0.00 0.00 0.00 30 1013.7
20260509142508 16 276 0.0 4.8 0.00 0.00 0.00 34 1013.8
20260509142008 15 254 0.0 4.8 0.00 0.00 0.00 36 1013.9
20260509141503 15 271 0.0 3.2 0.00 0.00 0.00 37 1013.9
20260509141003 14 242 1.6 3.2 0.00 0.00 0.00 37 1014.0
20260509140503 14 270 0.0 3.2 0.00 0.00 0.00 37 1014.0
20260509140003 15 254 0.0 3.2 0.00 0.00 0.00 38 1014.1
20260509135504 14 252 0.0 3.2 0.00 0.00 0.00 36 1014.0
20260509135003 14 313 0.0 3.2 0.00 0.00 0.00 36 1014.0
20260509134527 13 300 0.0 3.2 0.00 0.00 0.00 37 1014.0
20260509134007 13 302 0.0 3.2 0.00 0.00 0.00 39 1014.0
20260509133504 13 311 0.0 4.8 0.00 0.00 0.00 40 1013.9
20260509133010 13 232 1.6 4.8 0.00 0.00 0.00 41 1013.8
20260509132503 12 253 0.0 9.7 0.00 0.00 0.00 40 1013.9
20260509132003 12 245 3.2 9.7 0.00 0.00 0.00 42 1013.8
20260509131511 11 259 1.6 6.4 0.00 0.00 0.00 48 1013.7
20260509131004 11 245 0.0 3.2 0.00 0.00 0.00 51 1013.6
20260509130504 11 210 0.0 3.2 0.00 0.00 0.00 53 1013.7
20260509130016 10 213 0.0 4.8 0.00 0.00 0.00 53 1013.6
20260509125502 10 227 1.6 6.4 0.00 0.00 0.00 54 1013.6
20260509125002 10 240 1.6 6.4 0.00 0.00 0.00 54 1013.5
20260509124506 9 227 0.0 3.2 0.00 0.00 0.00 59 1013.4
20260509124004 9 210 1.6 3.2 0.00 0.00 0.00 60 1013.3
20260509123504 8 241 1.6 4.8 0.00 0.00 0.00 60 1013.2
20260509123009 8 241 1.6 4.8 0.00 0.00 0.00 62 1013.1
20260509122508 8 237 1.6 4.8 0.00 0.00 0.00 65 1013.1
20260509122015 8 238 1.6 3.2 0.00 0.00 0.00 64 1012.9
20260509121512 8 313 1.6 4.8 0.00 0.00 0.00 67 1013.0
20260509121005 7 247 0.0 4.8 0.00 0.00 0.00 67 1012.9
20260509120504 7 186 1.6 4.8 0.00 0.00 0.00 68 1012.8
20260509120007 7 215 0.0 3.2 0.00 0.00 0.00 67 1012.7
20260509115504 7 238 0.0 4.8 0.00 0.00 0.00 67 1012.7
20260509115007 7 352 0.0 4.8 0.00 0.00 0.00 68 1012.9
20260509114528 7 231 0.0 3.2 0.00 0.00 0.00 66 1012.8
20260509114007 7 221 0.0 3.2 0.00 0.00 0.00 66 1012.7
20260509113503 7 224 1.6 3.2 0.00 0.00 0.00 66 1012.7
20260509113003 8 221 1.6 3.2 0.00 0.00 0.00 67 1012.7
20260509112503 8 191 1.6 3.2 0.00 0.00 0.00 63 1012.7
20260509112009 8 223 0.0 3.2 0.00 0.00 0.00 69 1012.7
20260509111509 7 224 0.0 3.2 0.00 0.00 0.00 65 1012.7
20260509111003 7 221 0.0 3.2 0.00 0.00 0.00 66 1012.6
20260509110507 8 198 0.0 3.2 0.00 0.00 0.00 67 1012.6
20260509110020 8 184 0.0 3.2 0.00 0.00 0.00 67 1012.4
20260509105509 8 184 0.0 3.2 0.00 0.00 0.00 63 1012.6
20260509105003 8 184 0.0 3.2 0.00 0.00 0.00 65 1012.5
20260509104502 8 184 0.0 3.2 0.00 0.00 0.00 64 1012.4
20260509104003 8 218 0.0 3.2 0.00 0.00 0.00 63 1012.4
20260509103503 8 215 0.0 3.2 0.00 0.00 0.00 65 1012.2
20260509103014 8 212 0.0 3.2 0.00 0.00 0.00 65 1012.1
20260509102507 8 185 0.0 3.2 0.00 0.00 0.00 65 1012.1
20260509102010 8 207 0.0 1.6 0.00 0.00 0.00 69 1012.1
20260509101532 8 220 1.6 3.2 0.00 0.00 0.00 68 1012.1
20260509101003 8 205 0.0 3.2 0.00 0.00 0.00 71 1012.2
20260509100502 8 200 0.0 3.2 0.00 0.00 0.00 70 1012.2
20260509100008 8 200 0.0 3.2 0.00 0.00 0.00 67 1012.1
20260509095506 8 206 0.0 3.2 0.00 0.00 0.00 68 1012.2
20260509095009 8 217 0.0 3.2 0.00 0.00 0.00 70 1012.2
20260509094527 8 271 0.0 3.2 0.00 0.00 0.00 67 1012.2
20260509094008 7 328 0.0 4.8 0.00 0.00 0.00 73 1012.2
20260509093509 7 348 0.0 4.8 0.00 0.00 0.00 74 1012.2
20260509093002 7 220 1.6 3.2 0.00 0.00 0.00 75 1012.2
20260509092505 7 315 0.0 4.8 0.00 0.00 0.00 75 1012.2
20260509090024 8 187 0.0 3.2 0.00 0.00 0.00 74 1011.9
20260509085509 8 45 0.0 3.2 0.00 0.00 0.00 74 1011.9
20260509085003 8 173 0.0 3.2 0.00 0.00 0.00 74 1011.8
20260509084506 8 169 0.0 3.2 0.00 0.00 0.00 75 1011.7
20260509084006 8 193 1.6 3.2 0.00 0.00 0.00 75 1011.7
20260509083506 8 223 1.6 4.8 0.00 0.00 0.00 72 1011.6
20260509083017 8 185 1.6 4.8 0.00 0.00 0.00 75 1011.7
20260509082507 7 194 1.6 3.2 0.00 0.00 0.00 78 1011.6
20260509082012 7 191 1.6 3.2 0.00 0.00 0.00 79 1011.8
20260509081528 8 195 1.6 3.2 0.00 0.00 0.00 78 1011.9
20260509081005 8 133 0.0 3.2 0.00 0.00 0.00 78 1012.0
20260509080503 8 133 0.0 3.2 0.00 0.00 0.00 78 1012.1
20260509080010 8 133 0.0 3.2 0.00 0.00 0.00 77 1012.0
20260509075506 8 133 0.0 3.2 0.00 0.00 0.00 77 1012.1
20260509075007 8 133 0.0 3.2 0.00 0.00 0.00 77 1012.1
20260509074531 8 192 0.0 3.2 0.00 0.00 0.00 77 1012.2
20260509074006 8 192 0.0 3.2 0.00 0.00 0.00 76 1012.3
20260509073511 8 189 0.0 3.2 0.00 0.00 0.00 76 1012.4
20260509073005 8 196 1.6 3.2 0.00 0.00 0.00 76 1012.5
20260509072504 8 223 0.0 3.2 0.00 0.00 0.00 77 1012.6
20260509072006 8 169 0.0 3.2 0.00 0.00 0.00 75 1012.7
20260509071512 8 169 0.0 3.2 0.00 0.00 0.00 75 1012.7
20260509071007 8 169 0.0 3.2 0.00 0.00 0.00 77 1012.8
20260509070509 8 169 0.0 3.2 0.00 0.00 0.00 77 1012.9
20260509070026 8 187 0.0 3.2 0.00 0.00 0.00 77 1012.9
20260509065506 9 196 0.0 3.2 0.00 0.00 0.00 76 1012.9
20260509065003 9 196 0.0 3.2 0.00 0.00 0.00 76 1012.9
20260509064508 9 196 0.0 3.2 0.00 0.00 0.00 76 1012.9
20260509064006 9 215 0.0 3.2 0.00 0.00 0.00 75 1013.0
20260509063507 9 218 0.0 3.2 0.00 0.00 0.00 74 1012.9
20260509063025 10 225 0.0 3.2 0.00 0.00 0.00 73 1012.9
20260509062508 10 225 0.0 3.2 0.00 0.00 0.00 74 1013.0
20260509062017 10 225 0.0 3.2 0.00 0.00 0.00 73 1012.9
20260509061528 10 247 0.0 3.2 0.00 0.00 0.00 73 1013.0
20260509061005 10 247 0.0 3.2 0.00 0.00 0.00 71 1013.0
20260509060502 10 246 0.0 3.2 0.00 0.00 0.00 71 1013.0
20260509060017 10 190 0.0 3.2 0.00 0.00 0.00 71 1013.1
20260509055503 10 163 0.0 3.2 0.00 0.00 0.00 69 1013.0
20260509055006 11 233 0.0 3.2 0.00 0.00 0.00 68 1013.1
20260509054527 11 227 0.0 3.2 0.00 0.00 0.00 67 1013.1
20260509054008 11 227 0.0 3.2 0.00 0.00 0.00 66 1013.1
20260509053510 11 220 0.0 3.2 0.00 0.00 0.00 66 1013.2
20260509053029 11 220 0.0 3.2 0.00 0.00 0.00 66 1013.3
20260509052502 12 220 0.0 3.2 0.00 0.00 0.00 64 1013.4
20260509052003 12 206 0.0 3.2 0.00 0.00 0.00 64 1013.3
20260509051512 12 248 0.0 3.2 0.00 0.00 0.00 62 1013.5
20260509051008 12 218 1.6 3.2 0.00 0.00 0.00 62 1013.5
20260509050507 12 184 0.0 3.2 0.00 0.00 0.00 66 1013.6
20260509050022 12 158 0.0 3.2 0.00 0.00 0.00 64 1013.7
20260509045513 12 240 1.6 3.2 0.00 0.00 0.00 66 1013.8
20260509045011 12 98 0.0 3.2 0.00 0.00 0.00 65 1013.8
20260509044506 12 42 0.0 3.2 0.00 0.00 0.00 65 1013.9
20260509044010 12 90 0.0 3.2 0.00 0.00 0.00 65 1013.9
20260509043509 12 234 0.0 3.2 0.00 0.00 0.00 65 1014.0
20260509043018 12 234 0.0 3.2 0.00 0.00 0.00 65 1014.0
20260509042509 12 234 1.6 3.2 0.00 0.00 0.00 61 1014.1
20260509042014 12 242 0.0 3.2 0.00 0.00 0.00 63 1014.2
20260509041544 12 242 0.0 0.0 0.00 0.00 0.00 63 1014.2
20260509041009 12 242 0.0 0.0 0.00 0.00 0.00 61 1014.3
20260509040506 13 242 0.0 0.0 0.00 0.00 0.00 61 1014.3
20260509040012 13 242 0.0 3.2 0.00 0.00 0.00 61 1014.4
20260509035507 13 242 0.0 3.2 0.00 0.00 0.00 61 1014.5
20260509035005 13 248 0.0 3.2 0.00 0.00 0.00 61 1014.5
20260509034522 13 220 0.0 3.2 0.00 0.00 0.00 61 1014.5
20260509034007 13 201 0.0 3.2 0.00 0.00 0.00 60 1014.5
20260509033511 13 202 0.0 3.2 0.00 0.00 0.00 60 1014.5
20260509033028 13 202 0.0 3.2 0.00 0.00 0.00 60 1014.5
20260509032504 13 207 0.0 1.6 0.00 0.00 0.00 59 1014.5
20260509032003 13 207 0.0 3.2 0.00 0.00 0.00 58 1014.5
20260509031515 14 207 0.0 3.2 0.00 0.00 0.00 57 1014.5
20260509031007 14 207 0.0 3.2 0.00 0.00 0.00 56 1014.5
20260509030511 15 209 0.0 3.2 0.00 0.00 0.00 55 1014.5
20260509030028 15 209 0.0 3.2 0.00 0.00 0.00 54 1014.4
20260509025510 15 190 0.0 3.2 0.00 0.00 0.00 52 1014.3
20260509025012 15 190 0.0 3.2 0.00 0.00 0.00 51 1014.2
20260509024511 15 191 0.0 3.2 0.00 0.00 0.00 49 1014.2
20260509024007 15 190 1.6 3.2 0.00 0.00 0.00 50 1014.1
20260509023508 16 128 0.0 3.2 0.00 0.00 0.00 49 1014.0
20260509023026 16 190 0.0 3.2 0.00 0.00 0.00 48 1013.9
20260509022508 16 187 1.6 3.2 0.00 0.00 0.00 47 1013.8
20260509022013 16 155 0.0 3.2 0.00 0.00 0.00 47 1013.8
20260509021533 17 155 0.0 3.2 0.00 0.00 0.00 46 1013.8
20260509021009 17 103 0.0 3.2 0.00 0.00 0.00 46 1013.7
20260509020508 17 103 0.0 3.2 0.00 0.00 0.00 44 1013.6
20260509020024 17 103 0.0 3.2 0.00 0.00 0.00 44 1013.6
20260509015505 18 103 0.0 3.2 0.00 0.00 0.00 42 1013.5
20260509015010 18 84 0.0 3.2 0.00 0.00 0.00 41 1013.5
20260509014522 18 82 0.0 3.2 0.00 0.00 0.00 42 1013.5
20260509014008 18 82 0.0 3.2 0.00 0.00 0.00 42 1013.5
20260509013513 18 92 0.0 3.2 0.00 0.00 0.00 41 1013.5
20260509013037 18 71 0.0 3.2 0.00 0.00 0.00 40 1013.5
20260509012506 19 110 0.0 4.8 0.00 0.00 0.00 41 1013.5
20260509012007 19 101 1.6 4.8 0.00 0.00 0.00 39 1013.5
20260509011520 19 102 0.0 6.4 0.00 0.00 0.00 39 1013.5
20260509011007 20 105 3.2 6.4 0.00 0.00 0.00 38 1013.4
20260509010515 20 113 1.6 4.8 0.00 0.00 0.00 37 1013.3
20260509010028 20 130 0.0 4.8 0.00 0.00 0.00 37 1013.3
20260509005509 20 78 1.6 4.8 0.00 0.00 0.00 36 1013.3
20260509005010 20 205 0.0 4.8 0.00 0.00 0.00 36 1013.3
20260509004517 20 150 1.6 4.8 0.00 0.00 0.00 36 1013.3
20260509004007 20 155 0.0 6.4 0.00 0.00 0.00 36 1013.4
20260509003509 20 166 0.0 6.4 0.00 0.00 0.00 36 1013.3
20260509003024 20 100 1.6 6.4 0.00 0.00 0.00 37 1013.3
20260509002513 21 115 1.6 6.4 0.00 0.00 0.00 36 1013.3
20260509002010 21 92 1.6 6.4 0.00 0.00 0.00 36 1013.3
20260509001529 21 61 1.6 6.4 0.00 0.00 0.00 35 1013.3
20260509001010 21 55 1.6 8.0 0.00 0.00 0.00 35 1013.3
20260509000508 21 84 3.2 8.0 0.00 0.00 0.00 35 1013.3
20260509000016 21 74 3.2 6.4 0.00 0.00 0.00 34 1013.4
20260508235507 21 40 1.6 11.3 0.00 0.00 0.00 34 1013.4
20260508235012 21 86 3.2 12.9 0.00 0.00 0.00 34 1013.4
20260508234529 21 149 3.2 12.9 0.00 0.00 0.00 34 1013.4
20260508234011 21 42 3.2 6.4 0.00 0.00 0.00 35 1013.4
20260508233512 21 165 1.6 6.4 0.00 0.00 0.00 35 1013.4
20260508233030 21 44 1.6 6.4 0.00 0.00 0.00 34 1013.4
20260508232507 21 75 3.2 9.7 0.00 0.00 0.00 35 1013.4
20260508232010 21 69 1.6 9.7 0.00 0.00 0.00 35 1013.3
20260508231521 21 65 1.6 9.7 0.00 0.00 0.00 34 1013.3
20260508231007 21 173 4.8 9.7 0.00 0.00 0.00 33 1013.4
20260508230510 22 104 3.2 9.7 0.00 0.00 0.00 34 1013.5
20260508230039 22 103 0.0 9.7 0.00 0.00 0.00 34 1013.5
20260508225513 22 183 1.6 9.7 0.00 0.00 0.00 35 1013.4
20260508225009 22 184 1.6 6.4 0.00 0.00 0.00 34 1013.4
20260508224523 22 136 1.6 6.4 0.00 0.00 0.00 34 1013.5
20260508224006 21 59 3.2 6.4 0.00 0.00 0.00 35 1013.4
20260508223509 21 96 1.6 8.0 0.00 0.00 0.00 35 1013.4
20260508223028 22 36 3.2 8.0 0.00 0.00 0.00 35 1013.5
20260508222511 21 275 1.6 9.7 0.00 0.00 0.00 36 1013.5
20260508222010 21 197 3.2 9.7 0.00 0.00 0.00 35 1013.6
20260508221531 21 157 3.2 4.8 0.00 0.00 0.00 36 1013.6
20260508221009 21 301 1.6 4.8 0.00 0.00 0.00 36 1013.7
20260508220507 21 61 3.2 14.5 0.00 0.00 0.00 36 1013.8
20260508220026 21 284 3.2 19.3 0.00 0.00 0.00 37 1013.8
20260508215512 21 17 6.4 17.7 0.00 0.00 0.00 37 1013.8
20260508215013 21 57 3.2 16.1 0.00 0.00 0.00 37 1013.8
20260508214530 20 45 6.4 17.7 0.00 0.00 0.00 37 1013.8
20260508214009 20 9 8.0 17.7 0.00 0.00 0.00 37 1013.9
20260508213513 21 15 4.8 12.9 0.00 0.00 0.00 36 1014.0
20260508213037 20 319 3.2 12.9 0.00 0.00 0.00 36 1014.0
20260508212508 20 223 3.2 9.7 0.00 0.00 0.00 38 1014.1
20260508212012 20 19 1.6 8.0 0.00 0.00 0.00 38 1014.1
20260508211534 20 68 3.2 12.9 0.00 0.00 0.00 37 1014.3
20260508211011 20 230 4.8 12.9 0.00 0.00 0.00 37 1014.4
20260508210511 20 250 3.2 19.3 0.00 0.00 0.00 38 1014.4
20260508210028 20 63 8.0 17.7 0.00 0.00 0.00 38 1014.5
20260508205510 20 71 4.8 17.7 0.00 0.00 0.00 40 1014.5
20260508205012 20 344 1.6 14.5 0.00 0.00 0.00 38 1014.7
20260508204520 19 76 4.8 14.5 0.00 0.00 0.00 40 1014.7
20260508204010 20 29 8.0 14.5 0.00 0.00 0.00 38 1014.8
20260508203509 20 103 3.2 14.5 0.00 0.00 0.00 37 1014.8
20260508203032 19 79 3.2 12.9 0.00 0.00 0.00 39 1014.9
20260508202509 19 65 4.8 16.1 0.00 0.00 0.00 39 1014.9
20260508202007 19 336 6.4 16.1 0.00 0.00 0.00 39 1015.0
20260508201516 19 57 1.6 12.9 0.00 0.00 0.00 38 1015.0
20260508201008 19 360 6.4 16.1 0.00 0.00 0.00 38 1015.0
20260508200507 19 76 4.8 16.1 0.00 0.00 0.00 39 1015.1
20260508200024 19 336 3.2 9.7 0.00 0.00 0.00 38 1015.2
20260508195507 19 329 3.2 9.7 0.00 0.00 0.00 39 1015.2
20260508195003 19 360 4.8 12.9 0.00 0.00 0.00 38 1015.3
20260508194523 20 23 6.4 12.9 0.00 0.00 0.00 39 1015.3
20260508194006 20 9 1.6 8.0 0.00 0.00 0.00 39 1015.4
20260508193507 19 75 4.8 8.0 0.00 0.00 0.00 43 1015.4
20260508193016 18 345 4.8 9.7 0.00 0.00 0.00 41 1015.4
20260508192513 18 67 1.6 12.9 0.00 0.00 0.00 43 1015.4
20260508192012 18 52 6.4 12.9 0.00 0.00 0.00 41 1015.6
20260508191505 18 69 1.6 14.5 0.00 0.00 0.00 43 1015.6
20260508191004 18 24 4.8 14.5 0.00 0.00 0.00 41 1015.7
20260508190506 18 55 3.2 9.7 0.00 0.00 0.00 43 1015.8
20260508190014 18 135 1.6 12.9 0.00 0.00 0.00 44 1015.8
20260508185504 17 144 3.2 14.5 0.00 0.00 0.00 47 1016.0
20260508185012 17 71 4.8 16.1 0.00 0.00 0.00 46 1016.0
20260508184521 17 76 3.2 16.1 0.00 0.00 0.00 45 1015.9
20260508184008 17 58 4.8 11.3 0.00 0.00 0.00 44 1015.9
20260508183503 17 328 4.8 19.3 0.00 0.00 0.00 45 1016.1
20260508183007 17 43 9.7 19.3 0.00 0.00 0.00 46 1016.1
20260508182507 17 5 9.7 16.1 0.00 0.00 0.00 45 1016.1
20260508182006 16 129 4.8 14.5 0.00 0.00 0.00 46 1016.2
20260508181517 16 73 4.8 14.5 0.00 0.00 0.00 46 1016.1
20260508181010 17 30 3.2 14.5 0.00 0.00 0.00 44 1016.2
20260508180514 17 42 4.8 11.3 0.00 0.00 0.00 45 1016.3
20260508180027 16 5 0.0 11.3 0.00 0.00 0.00 45 1016.3
20260508175504 16 95 3.2 16.1 0.00 0.00 0.00 44 1016.3
20260508175010 17 86 4.8 16.1 0.00 0.00 0.00 46 1016.4
20260508174513 17 50 4.8 12.9 0.00 0.00 0.00 45 1016.4
20260508174007 17 352 4.8 17.7 0.00 0.00 0.00 44 1016.5
20260508173508 16 24 4.8 19.3 0.00 0.00 0.00 46 1016.6
20260508173022 16 352 8.0 19.3 0.00 0.00 0.00 46 1016.6
20260508172517 16 95 3.2 17.7 0.00 0.00 0.00 46 1016.5
20260508172015 17 36 4.8 12.9 0.00 0.00 0.00 45 1016.4
20260508171526 17 11 4.8 12.9 0.00 0.00 0.00 46 1016.5
20260508171010 16 69 4.8 12.9 0.00 0.00 0.00 46 1016.6
20260508170510 16 60 4.8 12.9 0.00 0.00 0.00 45 1016.6
20260508170013 16 113 3.2 14.5 0.00 0.00 0.00 47 1016.6
20260508165504 16 5 4.8 14.5 0.00 0.00 0.00 46 1016.7
20260508165006 16 22 3.2 14.5 0.00 0.00 0.00 46 1016.8
20260508164524 16 42 1.6 9.7 0.00 0.00 0.00 49 1016.8
20260508164010 16 111 3.2 9.7 0.00 0.00 0.00 48 1016.8
20260508163511 16 32 1.6 11.3 0.00 0.00 0.00 48 1016.8
20260508163028 16 156 3.2 11.3 0.00 0.00 0.00 47 1016.8
20260508162507 16 136 3.2 9.7 0.00 0.00 0.00 47 1016.8
20260508162013 16 79 1.6 9.7 0.00 0.00 0.00 49 1016.8
20260508161520 16 82 3.2 8.0 0.00 0.00 0.00 51 1016.8
20260508161010 16 94 1.6 9.7 0.00 0.00 0.00 52 1016.8
20260508160514 16 147 3.2 9.7 0.00 0.00 0.00 53 1016.8
20260508160027 15 59 1.6 14.5 0.00 0.00 0.00 53 1016.9
20260508155511 15 79 4.8 14.5 0.00 0.00 0.00 54 1016.9
20260508155014 15 93 4.8 14.5 0.00 0.00 0.00 55 1016.8
20260508154544 15 165 1.6 6.4 0.00 0.00 0.00 54 1016.8
20260508154009 15 107 1.6 9.7 0.00 0.00 0.00 54 1016.8
20260508153510 15 81 1.6 9.7 0.00 0.00 0.00 53 1016.7
20260508153024 15 113 1.6 11.3 0.00 0.00 0.00 54 1016.8
20260508152507 15 103 3.2 12.9 0.00 0.00 0.00 55 1016.7
20260508152012 14 92 3.2 12.9 0.00 0.00 0.00 59 1016.7
20260508151526 13 86 3.2 6.4 0.00 0.00 0.00 62 1016.6